Showing default

COSMOS 2459 (GLONASS), 36400

Orbit data source: Space-Track

COSMOS 2459 (GLONASS), 36400 is a Commonwealth of Independent States-origin payload satellite in MEO that was launched on Mon, 01 Mar 2010 UTC via a PROTON-M/DM-2 launch vehicle from the Tyuratam Missile And Space Complex (TTMTR). Payload-class satellites include a variety of spacecraft equipped with specific instruments for various scientific and technological missions. These include communications satellites like Starlink; space stations such as the ISS; scientific satellites like the Hubble; Earth observation satellites from companies like Planet Labs, Umbra, and HawkEye 360; GPS; miniature CubeSats for education and research; and military/defense satellites.

Loading next visibility...
Identifier
36400, 2010-007A
Orbit
MEO
Last TLE update
1 day ago
Origin
Manufacturer
Resehetnev ISS
Mission
Non-operational Defense Navigation
Bus & Motor
URAGAN, Unknown motor
Mass
1,450 kg wet, ~1,200 kg dry
Launch date (UTC)
2010-03-01 (15 years ago)
Launch vehicle
PROTON-M/DM-2
Launch site
Tyuratam Missile And Space Complex (TTMTR)
Object type
Payload
Rocket body
Debris
Shape & HBR
Cyl + 1 Ant + 2 Pan, 7.8 m
Radar Cross Section
8.467 m², Large (>1 m²)

Expand to show TLE details & history

TLE from 1 day ago
0 COSMOS 2459 (GLONASS)
1 36400U 10007A   25128.28639743 -.00000044  00000-0  00000-0 0  9990
2 36400  65.6650 328.2424 0025906 347.7125 190.7890  2.13116899118193
Epoch: 2025-05-08T06:52Z
Definitive object data (Epoch: 2025-05-08T06:52:24.737Z)
Latitude
1.39241°
Longitude
178.1609°
Altitude
19,193.932 km
Speed
3.943 km/s
True Right ascension
09h 50m 29s
True Declination
1° 23' 24"
Sunlit
Object was in daylight at TLE epoch
Visualization TLE readout
Latitude
-44.42438°
Longitude
-154.95193°
Altitude
19,174.99 km
Speed
3.948 km/s
Apparent Right ascension
10h 40m 41s
Apparent Declination
-54° 13' 48"
Sunlit
Object is in daylight
Visualization observer readout
Local Sidereal Time
15:10:07
Azimuth
215.132° SW
Elevation
-20.367°
Doppler factor
1
Orbital elements
Apogee altitude
19,194.368 km
Perigee altitude
19,062.214 km
Semi-major axis
25,506.428 km
Eccentricity
0.0025906
Inclination
65.665°
RAAN
328.2424°
Arg. of periapsis
347.7125°
True anomaly
190.73361°
Mean anomaly
190.789°
Eccentric anomaly
190.76129°
Mean motion
0.53281 °/min
BSTAR
Unknown
Orbital period
675.67 mins
Loading maneuver chart data...
Loading SW <> Apogee altitude chart data...
Loading historical data...
Loading historical data...
Loading historical data...
Loading historical data...
Loading historical data...
Loading historical data...
Loading historical data...

COSMOS 2459 (GLONASS) Visibility forecast

Observer location: undefined°, undefined°

Span
Click to sort rows by Start time (UTC) header in descending order
Start Az.
Max El. time (UTC)
Max El. Az.
Max El.
End time (UTC)
End Az.
225 mins2025-05-09 10:36:11.353Z136.161° SSE2025-05-09 12:30:11.353Z74.587° E37.246°2025-05-09 14:21:11.353Z28.686° NE
236 mins2025-05-10 00:36:11.353Z329.416° NNW2025-05-10 02:34:11.353Z281.074° WNW39.203°2025-05-10 04:32:11.353Z217.628° SW
|